Theta_e
294 294 293 294 294 294 293 293 292 293 292 286 282 280 281 278 276 281 283 281 283 277 268 270 270 267 267 268 270 270 270 269 269 270 269 269 271 270 268 266 265 265 266 266 265 265 262 263 265 265 265 264 267 266 266 267 269 270 269 269 270 272 264 263 263 265 267 268 269 269 268 268 269 269 268 268 266 265 264 263 264 261 264 264 266 263 262
294 293 293 294 294 293 293 293 292 292 290 284 282 279 275 276 277 279 283 281 281 278 268 266 265 266 265 269 267 270 269 267 268 267 268 268 268 266 266 268 267 263 262 263 262 264 260 263 265 265 265 265 265 266 265 268 269 269 268 266 269 263 264 262 260 260 262 263 266 267 267 267 265 264 266 265 266 265 266 266 266 260 263 264 265 260 262
293 293 294 294 293 292 292 292 292 292 290 286 284 278 275 275 276 278 279 279 279 272 267 269 267 267 263 262 264 266 268 268 267 268 267 267 266 265 264 265 266 264 262 259 262 264 264 260 264 265 265 265 268 267 264 266 269 271 273 271 269 265 263 262 258 255 254 253 255 258 261 263 264 263 264 264 263 262 263 260 264 258 263 260 262 262 263
293 294 293 292 292 291 292 291 292 292 290 286 282 274 276 275 271 274 276 275 272 269 268 267 268 262 260 263 261 262 265 268 269 269 267 269 267 268 268 267 267 265 264 261 258 261 265 263 260 264 263 266 266 261 264 265 269 272 273 271 268 262 260 262 261 260 259 260 261 264 265 263 260 263 264 264 264 265 263 263 261 258 262 259 262 263 264
294 293 292 292 291 292 291 291 291 291 290 286 277 271 272 272 273 267 271 273 271 268 268 266 266 267 266 264 261 260 262 263 267 270 265 268 267 265 265 263 265 263 262 259 259 258 261 262 259 257 263 264 263 258 258 263 270 271 270 270 263 262 261 258 256 258 260 259 260 263 263 260 262 262 262 264 264 264 261 260 259 264 259 257 264 262 263
293 292 291 291 291 291 291 291 291 291 288 289 281 273 271 274 266 268 267 268 268 270 267 264 263 261 264 261 258 259 261 262 263 267 266 265 264 265 261 262 259 259 259 256 259 256 254 254 257 256 255 256 260 263 262 261 268 269 266 267 265 261 259 256 257 257 258 258 260 259 259 260 262 262 262 262 263 263 260 259 261 261 259 257 261 258 262
292 291 291 290 291 290 290 291 290 290 287 286 281 274 268 271 268 268 266 268 262 265 267 267 265 264 263 263 261 262 264 263 263 263 265 263 263 264 259 261 260 260 258 261 259 255 257 256 255 256 258 258 260 261 261 266 268 267 265 264 262 262 260 255 256 254 256 259 257 257 259 260 260 259 261 262 262 262 262 262 262 262 259 261 262 262 262
291 291 290 291 290 290 290 290 290 289 287 283 277 273 274 269 270 268 268 266 264 262 263 263 266 265 267 264 260 261 260 262 263 264 261 259 262 262 260 260 260 260 257 258 260 259 261 259 257 260 258 258 261 261 262 262 266 265 263 263 264 261 259 262 257 256 257 257 258 260 259 258 256 259 261 261 261 262 263 262 262 262 262 262 262 261 261
291 290 290 290 290 290 290 290 290 288 288 279 273 273 274 271 269 271 271 268 266 263 259 266 264 265 266 265 262 263 262 262 263 262 263 261 261 262 263 261 258 258 259 259 259 263 264 263 263 262 261 260 263 261 261 263 262 262 262 262 261 261 259 256 257 256 255 255 256 259 258 258 257 257 259 259 259 258 260 260 262 261 260 262 262 260 261
290 290 290 290 290 290 290 290 289 287 287 274 273 274 274 272 271 269 273 266 265 264 257 259 263 265 265 266 265 264 262 264 263 261 264 262 261 260 264 258 261 257 260 259 263 264 266 266 266 267 266 264 264 265 264 264 263 260 261 256 260 256 259 257 258 255 253 254 254 255 256 257 255 257 260 261 261 262 262 263 264 263 264 260 259 260 265
290 289 289 290 290 290 289 289 289 286 284 276 274 272 272 274 273 270 272 267 262 258 261 264 265 265 265 264 262 262 262 261 258 262 260 258 261 257 259 257 260 261 260 264 268 269 268 267 265 263 261 262 262 262 263 263 263 263 262 258 256 255 258 258 257 253 254 252 251 255 255 250 254 261 262 263 261 261 260 260 262 264 264 263 265 263 263
289 289 289 289 289 289 289 289 288 286 283 279 278 274 274 267 269 270 273 269 263 259 263 263 263 264 263 260 259 260 261 260 260 260 261 260 261 256 257 257 261 261 265 269 268 266 264 265 264 263 263 261 262 263 263 263 263 266 265 262 257 258 259 258 256 254 254 253 254 253 248 252 260 262 263 262 261 261 261 262 262 263 264 264 263 264 264
289 289 289 289 289 289 289 289 287 286 283 278 277 273 271 267 269 269 270 268 262 261 264 261 259 259 259 261 261 261 262 262 264 263 262 262 260 261 261 262 260 263 270 267 266 265 261 256 256 253 255 256 259 261 261 261 261 262 265 265 261 258 258 258 255 256 255 253 252 244 251 256 258 262 263 264 262 262 260 259 262 263 264 264 263 264 265
289 289 288 289 288 288 288 288 287 285 283 278 272 270 269 269 270 267 268 267 262 259 260 260 258 260 261 261 261 261 262 260 259 260 260 261 261 261 263 264 266 268 265 264 260 259 256 256 255 255 256 254 254 254 258 258 258 260 262 264 265 261 259 258 255 254 250 251 251 253 255 255 259 259 261 262 260 260 259 256 260 263 264 264 263 264 261
288 288 288 288 288 288 287 287 286 284 282 278 271 269 269 267 270 272 269 271 263 261 258 264 261 260 260 259 260 260 260 259 263 261 258 259 259 263 265 266 266 265 265 264 260 257 256 254 252 252 254 254 251 251 251 253 257 259 260 262 264 263 258 259 255 252 255 252 251 251 251 248 255 261 262 263 262 262 263 260 257 264 264 263 263 262 261
288 288 288 287 288 288 287 286 286 285 283 280 272 270 268 267 263 269 271 269 266 263 263 258 258 259 259 257 255 260 261 261 260 260 261 258 256 263 265 266 266 265 258 253 253 254 253 255 247 250 251 248 249 249 253 250 254 257 261 261 262 262 262 259 257 255 254 251 249 248 245 252 260 261 262 263 263 262 262 259 255 262 261 262 262 262 261
287 287 288 288 288 287 286 286 286 285 283 281 272 271 268 268 264 267 266 263 264 260 258 257 256 257 260 259 257 258 258 262 261 262 258 259 260 257 260 265 266 263 255 258 254 258 255 248 246 252 251 246 249 251 250 248 249 253 257 258 257 258 258 258 255 251 252 250 249 249 250 252 259 260 262 263 263 263 261 251 253 260 260 260 261 261 260
288 288 287 287 287 287 286 286 285 284 282 280 273 269 267 270 265 264 268 265 262 260 262 259 259 262 263 262 262 257 258 258 257 258 260 255 253 259 257 259 261 260 260 261 251 253 245 250 254 252 254 251 249 250 252 251 247 252 254 255 255 254 255 255 254 254 254 255 253 252 254 258 261 261 262 263 263 261 253 249 258 262 262 260 261 261 261
287 287 287 287 286 286 286 285 285 284 283 280 272 272 270 270 267 264 267 265 267 262 261 260 259 257 257 256 257 257 258 260 262 261 259 260 261 258 258 257 261 259 257 257 252 253 254 250 245 249 254 251 249 252 250 250 252 250 252 251 250 250 250 252 250 251 252 254 251 253 255 260 263 261 263 263 260 251 252 261 254 259 262 261 261 260 260
287 286 286 287 286 286 286 285 285 284 284 282 275 267 268 270 268 264 268 262 262 260 260 261 259 259 258 261 261 262 260 261 257 262 260 262 257 256 261 260 261 259 257 258 256 249 253 253 253 247 253 252 252 253 251 252 254 255 254 257 256 255 251 252 252 251 250 248 249 249 246 255 259 260 260 259 256 259 261 258 257 260 261 261 261 261 260
287 286 286 286 285 285 285 285 284 284 283 281 277 270 268 269 270 268 268 268 264 262 261 261 261 262 262 262 262 263 262 264 261 263 258 259 257 259 257 255 262 258 257 258 257 255 252 252 248 251 254 256 254 252 253 250 252 255 256 257 256 258 254 253 252 254 253 250 246 249 258 261 260 262 259 259 262 260 258 261 261 259 260 261 261 261 261
286 286 286 286 285 285 285 284 284 283 282 279 278 271 266 268 269 269 269 269 264 261 262 264 265 264 265 266 267 266 264 263 262 262 260 259 257 258 257 252 250 256 255 254 255 252 254 252 251 251 254 254 251 254 249 253 253 252 248 253 253 259 258 258 257 258 255 254 257 261 259 259 261 261 262 259 257 255 259 260 262 261 260 261 261 262 261
286 286 286 285 285 285 284 284 284 282 281 279 276 270 268 267 268 271 269 264 265 266 266 264 265 266 266 267 268 269 267 268 265 263 262 261 258 258 258 260 259 257 254 257 262 260 258 256 257 257 254 255 256 252 247 253 254 251 254 257 259 254 256 255 256 258 258 260 260 261 259 257 257 260 260 259 258 256 255 257 259 262 261 261 260 260 260
285 285 285 285 285 285 284 284 283 282 281 279 275 269 268 269 269 270 269 267 263 259 261 261 261 259 260 262 265 267 268 267 268 266 265 264 262 259 258 258 259 258 259 259 259 261 256 256 256 255 254 255 253 254 252 253 253 255 253 256 257 255 254 255 256 255 255 254 259 258 260 262 260 261 260 257 258 259 256 257 258 259 259 259 259 258 258
286 285 285 285 285 285 284 284 283 282 281 279 275 273 270 268 265 266 267 263 260 262 257 258 258 261 264 265 266 265 266 267 268 267 266 264 264 263 261 262 262 262 261 260 258 260 257 258 254 255 253 256 257 256 255 253 255 255 254 257 255 257 255 256 257 254 255 256 260 258 257 259 260 260 260 261 259 256 256 258 258 257 255 256 255 255 255
285 285 285 284 284 284 283 282 282 281 280 278 275 269 269 267 266 265 268 265 262 262 261 255 258 264 265 264 263 264 266 267 266 266 266 265 265 265 263 263 261 261 260 260 259 260 256 253 252 252 254 257 259 255 254 256 255 254 255 258 258 256 256 255 255 254 257 259 260 260 261 259 260 260 260 260 261 258 254 254 254 254 254 253 252 253 254
285 285 284 284 284 284 283 282 282 281 279 277 271 269 268 266 266 266 265 267 266 262 259 256 256 256 261 261 264 265 266 267 267 266 265 265 265 265 263 262 260 260 260 259 257 253 252 252 254 256 255 256 254 254 254 255 255 254 253 256 255 256 255 256 255 254 254 255 258 257 256 257 260 259 259 258 258 258 256 254 253 252 253 252 252 251 250
285 284 284 284 283 283 283 282 282 281 280 277 273 269 269 269 269 266 265 266 268 266 260 254 257 257 261 258 263 264 265 266 266 265 265 264 264 263 261 258 258 260 258 259 257 257 256 255 257 252 251 250 253 254 253 253 252 253 253 256 257 256 258 258 255 255 256 260 261 260 260 260 261 261 258 256 256 256 255 254 253 253 253 252 252 252 250
284 284 284 283 283 282 282 282 281 280 278 275 269 271 270 270 271 272 268 264 264 260 260 258 257 259 259 258 263 263 264 265 265 265 264 263 262 261 259 257 255 254 253 254 255 254 255 257 254 256 256 256 256 253 253 251 249 251 257 258 258 260 262 260 261 261 262 262 259 257 259 259 260 258 255 254 254 255 255 255 255 254 252 251 251 253 252
284 284 283 283 282 281 280 280 279 279 277 266 265 263 263 268 271 271 272 268 266 265 261 257 258 255 254 256 257 259 260 263 264 263 262 262 261 261 261 261 260 261 257 256 257 257 255 254 252 250 251 253 255 252 252 247 246 252 256 257 259 260 260 261 263 260 259 258 259 259 258 257 254 253 253 253 253 253 254 254 253 252 251 250 250 250 250
283 283 283 282 282 282 281 280 279 278 278 263 261 260 259 260 267 272 271 264 264 264 257 260 256 255 254 257 258 258 257 261 261 261 261 261 261 260 260 261 260 261 258 256 256 254 252 254 252 255 254 256 258 253 252 246 248 251 254 255 257 258 259 260 261 262 261 256 254 253 254 253 252 252 253 251 250 251 252 251 251 252 251 249 249 250 250
284 284 283 283 282 282 281 280 280 279 273 270 265 263 261 266 268 272 271 268 261 263 261 256 252 255 255 259 258 256 257 256 257 261 263 263 259 259 258 259 257 260 263 255 251 252 253 250 252 252 254 259 260 250 246 248 249 253 257 255 255 257 259 259 259 258 257 256 255 256 255 255 254 254 257 253 252 250 251 251 250 251 250 250 249 248 248
284 283 282 281 281 281 281 280 280 278 274 276 279 278 277 276 274 272 269 261 262 252 255 259 253 255 257 257 256 254 256 257 257 258 258 262 258 258 256 255 256 259 263 258 251 253 250 249 250 252 254 254 253 248 246 249 252 257 259 257 255 253 254 254 253 252 253 252 255 256 256 257 254 254 253 250 250 250 249 249 248 247 247 248 247 248 248
283 282 282 282 282 281 280 279 279 278 276 269 265 268 272 275 274 272 262 261 256 251 256 256 251 251 253 253 254 255 258 257 254 253 254 258 255 256 254 254 257 256 254 255 252 250 248 250 252 252 252 251 249 250 248 252 254 255 257 258 256 252 249 250 251 251 251 250 251 254 251 248 247 248 248 249 248 247 247 247 246 247 247 247 247 249 249
283 283 282 281 279 279 277 276 270 271 266 266 267 270 272 275 273 272 268 268 263 257 254 255 256 253 254 254 252 255 254 256 256 254 255 255 255 255 254 253 253 253 254 253 250 249 249 251 251 250 250 248 247 247 251 254 256 256 255 255 254 252 251 252 254 255 254 252 250 250 247 247 249 250 250 249 247 247 247 246 247 248 247 247 248 248 248
282 281 280 280 279 277 275 274 271 264 263 265 267 274 276 274 272 265 262 261 264 255 256 253 256 253 253 252 253 254 258 253 252 251 251 253 254 250 250 253 252 252 245 248 251 248 250 252 251 249 248 246 250 252 255 256 255 254 253 254 253 253 255 255 253 244 246 247 248 247 246 246 248 250 249 248 248 247 246 246 245 245 246 247 248 248 247
281 280 279 276 273 272 267 267 272 268 266 271 273 276 275 275 269 266 264 263 262 259 257 253 256 252 254 255 253 253 255 254 253 253 253 253 253 249 249 251 251 255 252 250 247 248 251 253 249 245 244 248 253 256 257 257 255 255 256 255 253 252 253 250 246 247 246 244 244 246 246 245 246 247 247 246 246 246 245 245 246 246 245 246 247 246 247
280 277 270 267 262 260 261 266 266 271 276 274 274 270 264 263 258 258 254 255 256 261 254 254 252 249 246 253 253 257 257 253 251 253 251 251 255 251 248 252 256 258 252 248 250 252 249 248 245 247 249 253 256 255 255 255 255 256 256 256 254 252 252 251 248 251 249 249 249 246 244 244 245 246 246 247 247 246 246 247 248 248 248 248 248 248 247
277 270 265 262 261 261 264 265 274 276 274 272 268 263 260 252 255 256 254 250 251 257 252 255 252 246 249 250 253 260 259 256 251 248 252 256 255 251 251 251 256 255 247 246 249 252 248 245 240 241 245 249 250 253 253 254 255 256 256 255 255 253 251 250 250 254 254 256 257 253 252 252 251 250 248 247 248 248 248 247 247 247 247 247 247 247 246
265 267 263 259 262 266 271 272 273 274 273 266 256 257 255 254 259 256 252 256 256 251 252 253 248 245 247 253 253 254 260 256 253 252 249 252 259 253 251 248 250 250 246 246 250 248 248 248 243 241 250 253 253 256 254 251 250 251 251 252 252 252 251 251 250 253 255 254 251 252 251 252 252 253 250 248 247 247 246 246 247 247 246 246 246 246 245
266 265 265 266 265 264 267 268 263 258 257 257 255 253 252 256 250 247 251 250 251 252 248 250 249 250 248 246 251 254 257 254 247 247 251 251 258 258 250 249 250 249 245 245 248 243 244 243 243 245 255 257 253 253 250 249 250 251 250 248 249 250 250 250 251 251 251 252 251 249 247 247 247 249 250 249 248 248 248 247 246 245 245 245 244 245 247
274 272 270 269 268 266 264 261 258 257 255 253 254 253 249 250 251 251 252 256 256 251 251 251 251 252 252 253 253 251 252 249 250 250 251 251 259 254 246 245 245 246 244 247 243 242 245 244 244 248 253 255 256 255 252 253 253 250 251 248 248 248 248 249 250 249 249 251 252 252 249 245 246 247 248 246 247 247 246 244 244 244 244 245 246 246 245
277 273 270 264 263 259 256 260 255 253 255 254 253 254 252 253 254 255 253 250 247 251 252 253 252 255 252 251 251 251 255 257 257 248 247 248 256 249 242 241 242 245 246 243 243 242 242 244 245 253 258 258 254 251 251 252 252 250 250 248 247 248 248 248 249 249 249 248 249 251 249 245 245 246 245 245 245 243 243 244 245 245 244 243 244 245 245
273 273 266 258 259 258 260 257 258 257 254 250 253 255 254 254 256 252 253 256 251 251 252 254 252 255 252 251 252 254 256 258 259 247 246 243 245 243 244 242 244 246 244 245 245 245 248 247 252 258 256 252 253 252 252 251 250 249 249 249 247 246 247 247 247 247 247 247 247 248 246 245 245 243 240 241 244 247 247 245 244 244 243 242 243 243 244
271 267 260 259 256 255 258 257 255 255 257 255 257 252 251 257 256 252 257 253 251 255 250 251 253 252 252 248 248 252 257 252 255 252 247 246 245 242 244 246 243 241 244 245 242 244 244 248 254 254 253 254 255 256 255 255 252 250 249 245 245 245 246 246 246 247 248 247 247 246 246 246 244 244 243 243 243 244 246 247 246 243 242 243 243 243 244
265 263 258 257 255 256 255 254 251 254 255 254 253 254 253 255 252 252 249 244 248 251 253 250 249 250 248 246 252 251 244 246 249 245 243 243 246 246 246 243 245 246 242 242 242 248 253 257 258 256 255 254 255 254 249 247 244 244 247 250 250 246 245 246 246 246 247 248 246 245 246 245 245 245 245 244 243 241 241 244 244 244 243 242 242 243 243
262 259 255 256 255 255 255 255 254 254 255 252 249 250 254 253 248 250 246 245 251 252 250 248 250 251 251 248 248 247 244 242 245 245 246 246 245 246 246 245 245 242 244 244 246 250 253 255 257 257 256 255 253 251 249 245 241 243 247 249 245 245 245 245 245 245 246 245 245 244 245 245 245 245 244 242 242 242 242 242 242 243 243 244 245 244 243
265 260 258 257 255 254 256 255 250 248 245 247 247 244 245 244 249 250 247 245 250 252 253 252 252 251 252 247 249 249 244 241 246 246 245 246 247 243 242 241 243 242 245 248 254 256 257 256 256 257 255 253 251 250 248 245 242 242 244 246 246 244 242 243 244 245 245 244 245 245 245 244 244 243 243 244 245 244 243 242 242 241 241 242 242 242 242
261 257 259 255 253 252 254 252 253 255 251 245 244 245 246 249 250 249 248 246 251 252 250 251 249 250 249 245 244 247 248 247 248 246 246 244 245 245 244 244 242 248 252 251 256 257 257 258 255 251 249 247 247 247 250 250 248 246 244 245 246 247 246 244 244 245 244 244 245 245 245 244 243 243 242 240 241 244 244 242 241 240 240 241 241 242 242
260 259 256 253 255 255 250 250 255 256 250 247 247 249 247 248 247 248 247 249 246 248 248 250 251 250 245 247 246 242 243 242 245 246 244 244 245 242 244 246 249 254 256 255 254 256 259 259 253 250 252 250 248 247 248 249 246 246 246 246 246 244 245 245 245 244 243 244 244 244 244 243 242 243 242 243 243 242 239 239 240 240 240 240 241 241 242
256 256 255 256 260 260 256 257 256 252 253 253 252 251 250 251 252 252 251 249 247 248 251 251 246 244 246 244 242 248 249 245 246 247 248 246 245 245 248 252 256 257 259 260 258 259 258 255 254 255 253 252 252 251 250 250 248 248 247 246 244 244 243 242 243 243 243 243 243 242 242 243 244 244 243 241 240 240 241 241 240 239 240 240 240 240 241
255 255 258 254 250 253 254 253 252 255 257 252 250 249 251 248 250 249 250 252 251 254 252 246 246 246 245 247 247 248 246 246 245 242 246 249 247 249 249 253 259 261 261 261 260 258 255 254 252 251 254 257 256 254 251 248 248 246 245 244 243 242 242 242 242 243 242 241 241 242 243 242 241 240 239 240 240 240 242 246 246 242 241 241 241 240 241
Wind_Speed
7 7 7 8 11 11 12 12 13 12 12 2 1 2 1 3 1 1 8 9 4 13 9 4 5 5 1 4 4 4 4 3 3 4 4 2 3 3 6 3 2 2 1 1 3 3 3 3 3 4 4 3 5 5 8 7 2 2 3 2 3 1 1 1 1 2 2 0 2 2 4 2 1 5 6 4 4 5 3 4 5 3 7 6 7 6 2
7 7 8 10 10 11 12 12 12 11 9 1 1 5 3 1 1 2 7 9 3 2 3 3 3 5 2 6 6 5 4 4 4 4 4 3 2 3 2 1 5 4 2 3 3 3 2 4 3 4 1 3 2 5 8 9 5 5 3 2 5 2 1 1 3 2 2 3 3 2 0 1 3 3 3 3 4 6 6 3 4 1 5 6 7 11 2
6 8 10 10 11 11 11 11 11 10 7 2 1 2 2 3 0 0 6 13 6 3 0 9 8 5 5 4 5 4 4 4 3 3 4 2 3 1 2 1 0 3 1 4 1 5 3 2 4 2 2 3 2 3 8 8 5 3 1 2 1 1 1 1 2 3 4 2 1 1 1 3 3 1 0 2 6 7 6 3 4 1 1 8 4 3 4
7 9 10 11 11 11 11 11 10 9 5 6 6 2 1 0 2 3 4 8 8 7 4 3 7 9 5 6 1 0 4 2 2 2 5 4 4 7 3 1 3 4 2 4 6 6 7 2 2 1 1 2 2 2 7 4 6 4 10 8 2 0 1 0 2 3 6 4 4 3 2 4 4 7 5 7 2 1 1 4 7 10 9 6 8 6 4
9 10 10 11 11 11 11 10 10 7 5 8 7 3 1 1 3 1 1 1 10 5 3 3 2 5 1 3 2 4 2 2 2 5 1 5 2 4 5 2 0 1 4 2 3 2 2 5 5 3 2 2 2 4 3 5 10 8 6 6 3 1 1 1 1 4 2 3 3 5 4 6 8 8 9 7 5 5 4 7 9 5 6 14 1 2 2
10 11 11 11 11 11 11 10 8 5 4 3 2 3 4 2 1 1 1 1 2 2 3 2 6 5 4 3 2 3 2 3 4 3 4 1 4 2 4 7 5 3 4 5 2 3 2 2 2 2 2 3 5 2 4 5 8 8 2 5 2 1 0 2 1 3 3 4 4 4 3 4 6 7 8 9 10 7 7 9 9 8 10 15 1 2 2
10 11 11 11 11 11 11 10 7 4 5 3 2 5 2 2 3 2 4 2 2 3 4 5 9 9 5 4 4 2 5 5 2 1 1 3 3 3 3 1 3 3 1 1 2 3 2 0 1 3 1 1 3 1 1 2 8 6 4 4 2 0 0 1 0 3 5 3 1 1 2 3 4 6 9 10 11 11 11 10 8 9 11 10 11 9 14
10 11 12 12 11 11 11 10 6 2 4 4 6 3 3 3 3 2 5 8 5 4 3 2 2 6 4 4 2 4 3 6 4 3 3 2 1 0 7 4 2 2 3 3 3 4 0 4 2 3 4 0 1 1 1 1 4 5 5 1 4 1 1 5 2 1 5 2 2 2 3 1 5 8 10 11 9 10 12 11 10 11 12 14 14 15 16
10 11 12 12 11 12 12 11 7 2 2 5 5 2 3 2 1 3 10 6 3 2 4 3 5 3 3 5 3 4 3 4 4 4 3 1 1 0 7 8 5 3 3 6 4 3 5 5 5 6 4 1 1 0 1 1 3 4 2 3 4 2 1 3 1 3 2 3 6 4 4 4 7 12 13 11 11 11 11 10 11 11 14 13 14 14 11
10 12 12 12 12 12 13 13 8 7 9 6 2 3 2 2 1 1 3 6 5 1 1 0 1 2 1 2 5 3 6 6 5 6 3 3 3 3 6 7 6 1 4 3 3 3 1 4 4 2 2 2 2 2 1 0 2 1 1 1 0 1 0 1 1 2 2 1 2 4 6 8 9 7 4 5 8 11 11 11 11 11 11 12 12 13 4
10 12 13 13 13 13 14 14 12 2 1 3 4 2 2 2 3 1 2 9 2 3 1 2 3 2 5 3 5 4 6 4 3 3 1 3 3 3 4 7 4 2 3 4 2 3 3 3 4 5 7 6 3 2 2 2 1 2 1 1 1 0 1 0 1 1 1 2 6 3 4 5 4 4 0 3 5 6 8 10 9 9 5 9 7 5 2
10 11 12 13 14 14 14 15 14 12 6 3 5 5 2 1 3 3 3 6 1 1 0 1 2 3 5 2 3 4 5 2 1 3 9 2 3 1 4 3 3 3 2 1 3 5 5 4 5 5 5 7 2 2 2 2 1 3 3 3 2 2 1 1 1 1 2 2 3 4 4 8 2 2 3 4 3 4 8 11 11 11 11 11 12 11 7
10 11 12 13 14 15 15 14 15 14 11 5 4 6 2 0 2 3 4 8 4 1 2 2 2 2 7 10 10 7 6 6 7 9 8 6 1 1 2 1 2 2 1 2 4 4 2 0 2 1 3 6 4 2 4 5 2 1 4 4 4 3 2 2 1 1 1 1 2 1 3 1 9 13 11 3 2 6 5 11 14 15 13 13 11 10 7
11 11 11 11 13 14 16 16 15 14 12 10 9 5 2 2 3 3 2 8 3 1 2 7 4 7 8 8 10 8 8 5 3 4 5 4 5 3 1 0 3 2 3 6 6 3 2 1 0 1 0 3 1 1 1 2 2 3 1 4 4 3 2 2 1 2 2 0 2 9 8 12 6 2 5 4 1 4 3 5 5 2 4 6 9 4 3
10 10 11 10 11 13 15 15 17 18 19 17 12 6 4 3 2 4 1 6 8 2 2 3 7 7 9 7 7 6 3 2 4 5 1 1 2 0 2 3 3 2 2 1 1 3 1 1 1 0 0 0 0 1 3 0 3 2 4 2 3 6 3 1 1 1 3 3 6 3 3 3 4 4 4 2 1 3 3 2 10 6 6 3 5 5 5
11 12 11 11 12 11 11 12 14 16 16 16 11 7 7 4 1 3 4 7 11 6 3 1 5 8 9 4 3 4 6 3 2 3 1 3 3 1 2 2 1 2 7 8 2 3 1 0 3 1 0 1 1 0 1 3 1 1 3 2 5 1 1 2 4 3 1 1 2 2 2 5 2 3 5 3 2 1 3 3 9 2 2 4 4 4 5
10 12 13 13 13 12 12 12 11 9 6 11 5 4 6 8 3 2 6 6 7 4 3 2 4 5 7 4 0 2 1 4 5 5 2 1 2 2 5 3 2 4 3 4 2 1 2 5 0 0 0 3 3 1 0 1 2 2 2 5 5 3 2 4 5 5 3 1 3 7 4 5 2 1 2 4 2 2 3 8 4 3 3 4 4 5 6
10 10 10 11 12 13 14 14 15 15 14 14 11 7 4 5 4 0 6 5 8 4 2 2 2 1 1 2 4 2 4 4 3 1 3 1 1 1 1 1 1 2 2 1 0 3 2 1 1 1 0 1 0 1 1 3 1 2 3 2 2 2 1 3 9 5 7 9 9 3 6 6 7 7 5 5 4 3 3 8 1 4 4 5 4 4 5
10 10 10 9 8 9 8 7 7 9 12 14 7 6 7 9 6 3 9 4 4 7 4 2 1 2 1 2 3 3 0 2 3 5 4 2 1 1 3 2 2 1 5 4 1 1 1 0 1 0 1 1 0 2 1 1 2 2 2 1 0 1 1 0 2 5 9 8 8 10 8 5 4 2 7 7 5 3 8 1 1 0 3 4 4 4 5
10 10 11 11 12 12 13 12 12 9 7 10 10 7 2 9 5 0 6 9 5 8 2 1 2 1 2 2 4 3 2 2 1 3 3 2 2 3 1 1 0 1 1 0 1 0 0 1 1 1 0 1 2 2 0 4 0 4 4 3 3 3 4 3 4 1 2 0 2 4 6 0 4 10 4 1 4 4 2 2 0 1 1 4 4 4 5
10 10 10 10 11 12 12 13 14 15 15 15 14 8 8 10 7 5 3 10 13 12 3 0 0 4 2 5 4 2 1 1 4 2 0 2 1 2 3 4 4 2 3 3 3 2 2 1 2 1 1 0 1 1 2 1 5 3 1 2 3 3 3 1 2 5 2 3 4 6 3 2 6 9 4 7 6 2 2 1 1 3 2 4 4 5 5
10 10 11 11 11 12 13 13 14 13 13 12 14 12 9 2 6 9 14 12 12 8 6 4 2 6 6 6 6 5 4 3 1 2 7 4 2 0 0 3 3 1 1 3 3 1 0 1 2 1 2 1 1 4 2 1 3 0 4 2 3 10 7 2 4 4 6 6 6 2 1 2 5 5 2 1 1 1 2 2 2 3 4 4 4 5 5
10 9 9 9 9 9 8 8 8 8 9 8 9 6 8 2 3 2 9 19 12 12 7 4 2 4 3 7 7 5 3 3 3 2 2 7 2 1 1 1 1 1 1 1 1 1 1 4 1 1 1 2 4 1 1 3 2 1 2 7 5 2 1 2 1 6 4 11 11 5 3 4 5 5 4 4 3 2 3 4 3 4 2 4 5 3 4
11 11 11 12 12 13 13 14 15 16 17 15 11 11 7 6 2 8 11 7 5 8 2 2 0 2 3 5 6 7 7 6 7 3 1 1 3 0 0 2 2 2 1 1 2 0 2 1 0 0 2 2 3 2 3 4 6 3 1 2 3 3 2 2 4 0 2 8 3 6 11 8 6 8 3 2 4 5 6 5 5 2 3 3 2 2 3
13 13 14 14 15 16 17 18 20 20 20 21 17 10 7 3 2 1 4 7 1 3 4 1 2 1 3 2 2 2 7 4 4 3 3 3 2 2 1 2 4 0 3 4 2 3 1 2 1 1 2 2 4 3 2 1 3 4 4 4 1 3 5 3 10 5 7 13 6 4 3 4 3 3 4 7 6 7 6 6 2 2 1 1 2 3 3
14 14 14 15 16 17 17 18 18 17 16 13 8 3 4 3 0 1 6 7 5 4 7 2 1 2 2 1 4 4 5 6 4 6 7 4 3 1 9 6 5 4 5 3 0 1 2 2 1 1 2 2 1 2 2 2 2 0 4 8 1 2 6 6 3 4 8 10 14 11 9 11 11 9 8 7 4 3 5 6 4 3 4 3 2 2 2
14 14 15 15 16 17 18 18 19 19 19 17 10 5 5 3 2 1 2 5 3 3 4 3 0 1 3 6 4 3 4 5 4 5 6 6 6 6 6 7 8 4 3 3 3 4 3 2 1 2 2 0 0 1 1 2 1 2 3 3 4 3 10 4 0 8 10 11 6 5 3 6 1 4 6 5 5 5 4 4 5 6 7 5 6 4 2
14 14 15 15 16 17 17 19 19 20 20 19 12 8 5 6 4 2 1 0 1 2 6 4 3 2 1 4 5 4 5 4 4 6 6 7 7 6 7 9 7 3 1 2 1 1 1 2 2 1 1 0 0 2 2 1 1 4 7 10 8 11 10 8 9 7 8 2 4 6 7 7 5 2 2 1 3 5 6 7 7 7 7 6 7 6 4
14 14 14 14 15 16 16 18 18 16 15 10 4 6 7 5 3 6 6 2 7 10 9 6 2 1 2 1 4 3 6 5 4 5 6 7 7 6 5 5 4 3 3 3 2 2 1 0 1 2 1 1 1 1 1 2 2 7 8 5 10 11 8 11 12 9 10 4 2 5 4 6 1 2 2 3 3 5 7 5 4 5 6 7 7 7 7
13 14 14 14 14 13 12 9 7 5 4 1 1 3 4 1 4 5 4 3 3 5 7 5 4 0 2 2 3 3 4 5 4 6 6 6 6 6 4 4 4 2 3 1 1 1 1 1 0 2 4 2 1 0 1 0 2 10 4 6 13 7 8 8 7 8 8 1 1 3 4 2 1 0 1 2 3 4 5 6 6 5 4 6 9 8 6
13 12 11 10 9 7 5 5 4 5 5 2 1 1 2 1 0 3 3 4 1 7 5 5 4 1 1 0 1 4 5 3 3 4 5 5 4 4 2 2 2 0 1 0 0 1 1 0 1 0 1 4 2 1 2 3 4 7 9 10 8 8 8 11 9 7 4 2 3 2 0 2 1 1 7 9 8 6 4 1 2 3 4 6 7 6 6
10 9 8 8 8 7 7 9 12 12 6 5 3 1 1 1 0 1 2 2 1 4 5 7 2 1 0 1 1 1 2 2 2 2 2 1 2 2 3 2 1 1 1 2 0 1 0 0 0 0 1 1 2 1 1 1 4 11 7 5 6 7 6 5 6 3 0 2 4 3 8 8 6 8 3 3 4 5 5 4 3 3 3 3 1 2 3
10 10 10 9 10 11 11 12 15 13 10 14 17 16 11 9 7 4 3 1 7 2 2 6 4 2 1 1 0 1 2 1 2 3 1 3 1 2 0 2 1 1 6 3 0 1 0 0 0 1 0 3 1 1 2 7 13 16 12 4 4 7 7 3 3 3 2 4 7 9 9 4 3 4 1 2 2 5 6 5 3 2 2 3 4 5 5
11 12 13 14 15 15 15 15 14 12 8 5 4 4 5 8 5 6 4 7 5 1 3 5 3 2 1 1 1 0 1 1 1 1 1 3 1 0 0 2 1 1 2 1 1 2 0 0 1 0 0 0 1 0 5 13 16 17 14 11 5 2 2 4 5 8 9 9 8 7 3 2 3 2 2 3 3 1 1 3 5 5 6 6 7 6 5
13 14 13 13 12 11 11 9 6 6 3 2 1 2 2 11 12 7 2 0 0 1 3 2 2 5 1 0 0 1 1 1 1 0 1 1 3 0 1 1 2 0 0 2 2 1 0 1 1 1 2 1 0 5 9 13 16 10 10 10 6 2 1 4 10 11 8 6 8 7 3 2 1 6 7 5 6 5 5 5 4 5 8 8 7 6 5
13 12 12 12 11 7 3 6 5 3 4 1 0 2 5 7 6 5 4 5 3 3 2 0 0 1 3 2 2 1 0 1 1 0 0 0 0 2 1 1 1 0 1 1 1 0 1 1 1 2 1 1 9 10 13 12 11 8 7 10 7 10 8 7 3 4 4 3 3 2 2 4 8 10 6 5 6 6 6 6 6 5 8 9 8 6 5
12 12 10 7 4 3 5 2 2 2 2 2 2 1 3 2 0 1 3 3 4 3 4 3 3 1 0 2 1 0 1 1 1 1 0 1 1 1 1 1 0 2 1 1 0 1 1 3 1 1 3 8 10 7 11 7 8 9 9 8 7 8 6 2 5 10 7 5 4 2 3 7 8 7 7 9 9 6 5 11 13 12 14 16 11 8 10
12 8 3 1 2 2 2 2 1 1 2 4 1 1 5 5 1 2 4 3 3 3 5 3 3 1 2 1 2 1 0 0 1 1 0 2 2 0 0 0 2 1 3 1 1 1 1 1 1 2 9 9 15 15 16 12 13 11 10 9 7 7 8 7 11 7 5 2 5 4 3 5 10 9 10 12 10 13 15 13 8 9 8 10 9 6 5
6 2 3 2 2 1 0 0 1 2 3 3 3 1 0 1 1 1 1 2 2 3 2 3 2 1 2 4 1 1 1 3 1 1 2 2 0 2 0 1 1 1 1 1 0 1 1 1 0 1 12 6 4 10 8 11 11 11 11 10 7 7 8 10 13 12 12 11 6 5 9 8 9 10 10 12 9 9 8 8 10 9 9 8 7 6 6
1 1 1 1 1 1 1 2 6 1 1 1 3 2 0 2 1 0 1 1 1 1 1 2 1 2 1 2 4 1 1 1 0 0 1 0 1 1 0 1 0 0 1 1 1 2 0 3 0 1 10 5 9 8 3 5 6 7 5 7 6 6 8 11 14 10 8 4 1 3 5 4 4 5 7 10 8 8 8 8 8 7 8 9 7 6 8
1 2 1 1 2 1 0 2 2 3 1 1 0 1 1 0 2 0 1 1 0 0 0 2 0 1 1 1 0 3 2 4 0 1 2 1 2 3 0 0 0 0 1 1 0 1 0 0 1 4 10 4 5 3 1 3 6 8 6 6 6 6 9 9 9 9 8 8 6 5 4 5 5 6 6 7 9 8 8 8 10 11 7 8 10 8 6
2 1 3 5 3 1 0 2 2 0 1 0 1 0 0 1 0 0 0 1 1 0 0 1 0 2 1 1 0 2 0 0 1 1 1 0 1 1 1 1 2 1 2 0 1 1 1 1 3 7 10 10 11 7 6 8 7 4 5 5 7 8 7 9 10 9 8 10 8 6 5 7 6 7 6 8 8 8 7 7 7 7 11 11 6 4 6
18 12 5 3 1 1 0 1 1 1 1 0 2 1 0 1 0 1 1 0 1 1 1 2 1 2 1 0 1 0 0 3 0 1 1 1 1 3 2 1 1 1 1 1 1 1 1 4 5 13 9 6 5 5 8 8 6 5 5 3 4 5 8 10 11 9 8 10 9 9 7 7 8 7 4 7 6 3 4 6 7 8 8 7 7 6 6
3 1 1 1 1 0 0 0 1 1 1 0 1 0 1 1 1 1 0 2 3 1 3 5 4 5 2 2 2 1 2 2 3 2 2 1 1 0 0 0 1 0 1 0 0 3 5 4 12 9 4 5 7 8 10 9 8 6 6 6 5 4 5 5 3 5 7 5 6 6 3 6 5 4 4 4 8 10 8 6 7 6 4 3 5 8 5
1 1 2 0 0 1 1 2 1 1 1 1 2 1 2 1 1 4 2 0 1 3 2 2 4 3 4 1 1 1 1 1 2 1 1 0 1 0 1 1 0 1 0 2 2 3 2 9 9 7 12 12 13 10 7 6 6 7 5 0 4 5 6 10 11 8 8 9 9 7 8 7 6 8 8 9 8 7 7 8 6 7 6 8 8 7 6
3 0 1 3 3 2 1 1 1 0 1 3 1 4 2 2 2 1 0 1 4 3 5 4 4 5 4 1 1 1 1 1 1 1 0 0 1 1 0 0 0 0 1 0 1 6 9 7 3 6 7 10 9 6 4 5 3 2 5 5 8 10 11 10 8 9 10 9 7 7 8 6 8 8 9 9 9 9 9 9 4 7 6 6 9 11 8
2 2 2 1 1 1 1 1 1 1 0 2 1 2 1 0 1 0 1 1 2 4 6 1 3 2 6 2 1 1 2 1 2 0 0 0 1 0 0 1 1 2 3 4 6 8 7 8 6 7 7 7 8 8 6 5 3 7 9 6 1 6 8 9 9 10 9 5 6 7 7 8 9 8 4 3 7 10 8 9 9 7 8 11 9 5 5
0 0 1 1 4 1 1 2 1 1 1 1 0 0 0 1 0 0 2 2 1 4 7 6 5 1 4 2 2 2 1 0 2 1 1 0 0 1 1 0 2 3 4 4 7 5 5 4 4 5 6 5 5 5 5 6 6 8 9 9 8 6 7 9 9 10 7 8 10 10 9 8 8 8 9 10 8 7 7 9 9 9 10 8 7 7 7
3 2 1 2 1 1 1 1 1 2 1 1 1 0 1 2 2 1 2 1 4 4 1 1 3 3 2 1 2 1 0 0 1 1 1 1 1 3 2 2 1 3 7 10 8 4 5 6 5 4 5 5 6 7 8 6 6 9 11 11 12 12 9 10 12 10 9 9 8 9 9 9 7 7 7 4 7 10 6 7 7 9 9 11 10 10 10
1 1 1 1 2 2 0 0 1 4 1 1 1 1 1 1 1 1 3 5 1 3 1 3 2 4 0 0 0 2 1 1 1 1 1 2 3 1 1 2 6 6 3 4 5 8 8 4 1 4 6 8 7 7 9 9 7 9 9 10 7 5 8 10 9 8 9 10 10 11 8 5 8 8 10 13 9 1 2 5 7 9 9 9 9 9 9
1 0 3 2 3 4 4 2 2 1 0 2 3 5 6 5 5 6 5 4 5 3 1 2 1 3 1 2 1 0 1 2 2 3 4 3 2 3 4 6 6 8 8 4 7 6 4 3 3 4 6 7 8 8 9 9 8 10 8 7 8 7 5 5 6 7 7 8 7 6 8 11 10 8 4 2 2 1 3 6 9 10 10 9 10 11 11
1 1 2 1 1 2 2 1 1 3 3 2 3 2 4 3 3 3 4 6 4 4 4 2 3 2 1 3 3 1 1 1 0 1 2 6 5 5 7 9 9 6 7 4 4 4 4 4 6 9 8 7 7 7 6 5 7 6 6 8 8 8 8 8 8 8 7 6 8 10 10 5 4 3 4 4 3 2 7 9 7 9 10 7 8 12 10
Wind_Direction
51 35 14 8 16 8 3 359 359 360 5 1 44 217 45 29 85 101 349 353 358 73 72 40 52 73 80 290 36 4 57 77 4 47 355 58 9 59 55 22 84 36 52 109 74 31 90 357 65 122 103 89 30 337 328 310 312 289 56 251 39 105 348 276 243 316 257 355 90 88 40 304 184 66 35 25 47 36 360 327 339 293 309 322 259 234 111
41 26 14 21 12 9 2 358 1 0 29 77 149 71 95 108 56 26 14 354 199 92 131 109 91 86 44 83 79 32 69 40 22 54 14 21 48 73 65 98 23 113 336 69 79 329 112 357 79 111 186 92 263 5 349 354 37 8 43 348 359 313 97 21 313 300 171 142 130 127 161 81 51 4 20 16 20 13 314 284 262 274 248 264 272 260 82
33 20 27 17 10 3 2 359 358 2 34 93 230 105 150 111 188 99 347 12 27 90 292 128 129 121 119 99 55 1 73 35 24 31 51 26 62 126 33 338 188 58 70 78 106 29 29 129 360 40 69 89 352 359 9 328 20 333 333 23 317 301 39 305 301 308 297 286 286 305 337 8 352 170 22 26 49 335 336 324 291 273 132 64 269 299 107
27 32 23 14 8 2 1 357 356 2 58 103 74 120 155 21 102 328 24 14 49 69 21 33 122 128 138 82 290 191 96 108 24 5 70 50 71 47 117 112 81 80 86 52 31 23 12 50 153 124 107 96 52 355 320 355 343 24 50 28 357 112 24 274 255 257 269 312 358 76 10 308 287 298 322 309 351 304 167 278 272 259 292 307 260 254 278
37 28 20 13 7 4 359 353 357 3 48 105 105 59 50 65 85 322 86 6 48 73 22 62 30 124 191 105 185 64 65 282 46 359 105 24 47 66 38 340 85 59 87 100 96 360 343 24 82 353 35 30 313 310 289 296 12 20 40 13 103 69 214 66 95 248 294 29 242 303 335 273 284 287 287 302 301 281 270 259 251 15 7 276 45 150 216
36 25 19 14 10 3 360 357 355 12 26 149 80 63 345 83 216 71 297 98 132 105 39 46 86 44 53 106 71 121 95 33 110 37 51 99 20 106 351 35 43 13 142 133 101 350 46 18 125 298 190 302 335 64 5 55 353 30 32 1 52 62 250 28 53 274 260 238 267 3 321 254 268 284 289 289 282 274 249 243 244 262 248 257 186 223 231
31 27 20 18 10 5 3 359 359 47 46 78 95 103 355 52 120 97 306 92 309 42 107 101 102 83 81 104 70 100 110 112 52 50 173 25 6 6 125 285 354 23 325 106 136 176 126 34 348 173 86 51 318 48 324 113 31 28 39 28 86 198 330 141 190 296 308 298 36 34 267 293 277 249 261 267 271 268 264 261 250 236 247 258 280 269 268
32 28 24 18 12 7 6 1 4 104 78 67 70 40 133 189 153 108 13 81 84 26 27 33 79 77 1 95 1 121 149 134 159 48 66 87 351 98 86 151 92 26 88 110 118 214 139 167 131 207 123 161 247 349 301 321 21 21 27 26 355 339 95 84 170 318 294 319 38 159 340 298 274 262 250 252 253 262 262 263 255 248 254 260 261 263 262
33 30 26 20 18 13 11 9 10 65 169 33 78 77 10 87 353 147 129 89 53 104 12 74 51 105 29 83 186 117 155 133 148 89 1 96 184 230 145 144 129 36 60 71 108 149 110 94 100 160 186 66 163 283 159 123 2 7 17 42 337 9 256 84 122 319 280 23 8 343 334 278 273 275 261 246 238 246 247 242 245 236 250 254 256 256 258
37 34 27 25 21 20 17 17 23 67 85 106 130 92 160 102 73 29 85 94 344 32 111 80 225 72 199 92 155 153 193 152 161 92 55 43 35 7 137 172 111 51 80 100 141 173 118 62 104 174 121 72 76 20 97 104 328 15 110 315 325 16 358 311 336 294 271 3 20 335 316 297 281 252 253 250 245 236 256 260 263 259 261 267 257 258 322
44 40 33 29 29 26 27 24 25 45 160 125 109 127 194 156 152 89 61 101 353 59 4 42 59 73 101 47 109 41 115 147 319 129 237 19 25 26 144 137 115 116 155 161 100 46 42 46 77 84 74 47 67 88 125 94 188 186 165 126 67 144 171 138 157 252 270 328 321 294 303 295 267 80 50 268 258 276 258 260 260 264 248 255 290 317 63
50 47 39 37 35 35 35 36 40 50 77 102 109 99 118 124 68 78 112 95 98 318 54 73 66 140 129 89 82 113 133 180 225 295 135 119 113 92 89 84 118 101 164 102 73 95 98 109 73 98 71 19 34 115 154 220 162 230 196 228 144 163 155 178 151 227 263 4 303 294 241 238 54 332 257 240 278 290 266 275 281 278 276 270 272 265 240
53 47 43 43 44 44 43 46 51 57 70 74 65 114 102 254 96 103 99 100 121 172 115 113 22 83 123 109 87 75 84 86 89 89 83 112 129 72 293 114 91 108 20 98 105 107 120 304 14 1 314 343 11 73 77 16 22 16 207 192 170 182 184 157 193 218 233 191 154 2 247 337 294 275 271 236 202 253 287 281 263 257 259 268 270 269 269
55 49 49 50 53 54 54 57 62 67 73 92 81 72 78 306 98 102 117 104 80 77 152 94 80 99 108 100 113 118 112 77 49 37 85 10 107 99 133 324 34 356 93 91 60 83 105 69 26 45 295 16 59 42 326 329 27 8 55 194 211 165 116 183 246 156 250 258 232 254 332 316 282 228 136 164 231 169 216 283 297 123 260 244 257 240 131
56 55 52 56 63 66 67 70 74 76 79 83 98 84 64 21 25 126 143 88 124 131 285 142 175 142 118 115 137 118 83 126 113 56 21 300 75 247 48 54 32 74 165 187 77 43 101 111 49 35 334 53 233 225 338 115 334 13 339 288 215 184 196 186 197 223 162 254 289 289 286 280 269 164 79 79 34 52 40 8 287 255 222 209 248 240 173
63 60 59 60 63 70 77 82 88 94 96 90 78 84 61 37 270 51 89 113 130 124 206 293 128 141 125 143 245 129 154 131 102 116 81 12 305 288 100 30 101 111 61 69 62 86 25 228 179 128 285 207 277 55 262 342 337 308 16 28 171 175 77 176 228 258 128 237 227 238 237 245 69 167 130 123 119 134 250 301 287 45 132 175 209 211 170
68 68 65 64 67 69 71 71 73 79 78 93 97 82 62 14 46 114 102 61 46 99 30 124 123 121 107 75 41 80 188 136 173 138 141 170 132 315 296 345 73 59 84 88 4 98 56 61 30 56 325 146 117 238 68 70 331 319 50 52 70 144 190 206 228 230 218 211 244 255 203 253 72 182 171 153 146 192 245 295 297 120 207 192 197 204 175
70 68 68 69 71 73 75 78 80 82 85 90 91 87 44 20 66 60 65 85 111 79 66 140 148 154 144 165 146 110 100 95 56 44 71 97 326 166 237 350 96 11 230 81 81 72 75 132 158 171 149 148 257 65 268 121 204 213 169 149 169 181 210 198 233 232 239 225 253 299 273 243 244 227 144 145 170 197 251 241 315 144 180 183 205 210 180
72 65 63 69 71 74 78 84 93 107 106 104 112 77 43 11 4 60 111 77 76 119 159 108 72 112 141 63 88 151 121 152 157 117 127 133 161 236 129 231 269 174 7 141 88 112 139 104 348 326 182 162 103 220 106 131 207 49 105 139 144 175 142 281 51 234 234 239 244 254 280 259 162 151 154 152 155 212 225 254 27 117 173 169 194 201 175
74 71 70 70 74 74 74 71 71 72 79 99 94 87 61 6 6 325 111 101 58 99 115 1 186 74 218 143 134 134 153 92 358 119 182 134 160 123 141 134 192 96 101 152 118 355 152 179 142 167 220 170 222 120 185 252 232 183 178 218 215 173 163 204 201 167 61 59 250 297 285 26 120 119 115 180 216 272 62 103 239 164 255 174 197 200 179
79 78 76 77 78 79 78 80 81 83 86 94 105 107 60 7 14 48 57 121 127 111 82 207 132 65 105 59 34 341 97 179 168 122 148 70 172 187 149 215 157 151 179 166 176 192 171 148 195 193 359 153 136 140 225 2 297 275 195 207 227 142 240 227 232 180 241 184 186 208 229 87 175 169 198 194 227 62 179 187 170 178 227 199 201 212 201
84 82 81 80 81 84 85 85 86 88 95 102 101 93 86 4 36 54 71 61 72 69 110 135 154 100 79 61 54 47 55 59 7 127 140 121 359 344 30 113 159 163 180 127 88 54 255 85 74 127 184 162 17 232 153 201 257 136 338 31 263 179 205 197 256 164 190 223 222 206 119 179 208 238 320 53 67 170 185 226 295 178 216 219 234 221 204
85 84 84 82 80 77 75 78 86 103 107 100 72 71 113 158 47 345 89 80 78 78 76 78 101 91 86 70 55 54 68 75 101 76 103 116 125 200 152 199 198 162 87 294 251 80 134 152 182 146 75 212 185 160 264 223 293 141 204 202 261 344 354 63 359 246 295 281 252 262 246 211 238 254 239 238 176 181 183 193 220 224 209 183 217 231 210
88 85 84 83 82 82 81 82 84 86 81 78 97 120 107 104 114 94 74 73 101 120 73 31 126 43 21 35 10 7 28 24 21 19 289 309 124 136 232 263 85 126 291 219 324 165 160 82 75 155 243 213 113 190 191 232 213 195 299 274 244 230 152 158 232 320 43 270 58 223 246 260 224 230 229 227 226 216 181 210 225 221 182 202 231 223 207
94 92 91 90 89 87 86 85 86 84 87 92 87 82 104 84 34 30 105 120 198 126 126 28 30 353 332 298 281 3 25 360 349 30 36 36 82 148 183 133 163 48 163 151 167 96 76 125 189 162 201 226 169 249 80 278 276 141 240 238 222 259 156 222 235 229 216 254 245 225 219 250 257 221 240 240 218 208 207 218 226 201 117 225 191 166 192
100 98 96 95 94 93 92 92 90 89 89 81 69 78 69 79 15 350 71 57 76 94 107 130 88 3 305 48 35 355 336 353 18 39 47 46 47 94 129 125 77 57 91 105 64 108 112 74 102 107 190 215 216 240 223 216 22 338 239 250 137 108 125 241 168 211 253 279 272 268 271 252 240 233 237 253 261 189 200 208 202 196 198 190 170 212 201
102 99 98 97 96 96 96 93 91 90 86 82 77 73 89 88 43 54 133 161 106 58 65 91 232 310 9 68 13 359 345 357 23 52 50 43 66 77 92 109 109 89 87 72 36 101 68 79 162 216 205 257 102 244 352 281 237 243 250 231 130 136 231 190 97 265 257 245 250 102 287 281 245 189 220 220 218 206 191 166 204 204 206 191 192 204 219
104 102 100 98 99 100 100 98 97 95 94 91 86 88 79 70 34 26 14 5 132 172 136 124 138 157 61 47 12 16 4 20 43 57 60 59 64 74 86 91 105 112 117 125 154 145 93 166 225 66 32 9 177 231 147 10 38 255 242 237 171 200 215 168 212 206 250 206 197 187 230 265 278 276 128 183 169 175 187 201 208 210 208 189 192 199 199
109 106 104 103 102 102 102 104 101 100 97 94 95 92 73 72 56 38 51 47 108 105 88 94 94 59 147 27 3 18 13 14 59 66 70 61 57 62 74 80 89 124 94 58 60 82 161 232 80 171 151 201 182 270 113 235 193 241 234 176 171 222 200 197 219 237 261 261 182 163 170 247 271 146 166 197 185 190 212 223 218 209 194 188 202 211 207
110 109 108 107 106 105 106 106 102 84 98 49 41 39 55 27 34 28 26 54 73 107 111 135 123 161 338 351 11 3 356 3 58 75 72 69 64 64 56 83 88 67 66 102 174 197 184 126 255 290 286 278 209 139 236 189 247 255 268 216 217 213 220 232 233 217 250 72 121 177 239 288 48 353 343 242 208 204 209 221 206 197 201 177 197 207 219
116 116 116 117 114 108 99 87 72 53 54 67 70 41 58 54 33 40 51 48 3 94 104 70 91 159 23 100 105 24 357 11 66 80 79 70 63 64 49 63 63 94 99 79 41 73 131 172 108 100 16 229 192 214 214 144 261 290 257 212 210 210 221 226 228 241 273 136 99 92 354 260 176 296 241 215 212 199 215 230 205 201 178 168 203 197 195
123 115 107 96 90 88 88 87 83 72 60 57 55 165 200 143 139 164 76 104 87 69 92 105 78 10 95 133 84 313 340 350 17 1 75 88 60 31 33 22 102 304 235 117 40 130 221 7 144 297 140 10 327 120 104 196 239 250 245 191 217 222 235 241 246 231 337 153 133 281 259 237 175 205 253 96 179 178 201 178 161 156 156 175 153 216 222
106 102 97 95 98 97 97 94 90 89 94 92 82 71 73 82 82 76 98 99 55 73 101 78 113 173 116 231 329 301 161 131 38 15 107 2 58 330 355 354 355 49 30 96 346 174 78 121 103 152 168 359 179 141 204 223 228 239 249 246 194 217 219 265 315 322 234 208 188 208 248 250 214 237 313 125 156 172 178 167 150 133 140 192 227 235 228
112 112 110 107 102 97 92 90 86 87 60 50 17 13 2 45 78 103 101 77 97 150 75 106 102 79 138 346 70 91 98 189 154 339 107 40 14 342 72 20 11 254 344 338 188 93 70 194 212 198 320 26 39 243 263 246 233 251 265 266 243 203 231 278 256 251 226 209 228 242 304 83 74 64 83 168 164 112 71 92 133 170 213 220 236 230 236
124 119 115 107 102 95 83 65 43 42 84 74 85 253 270 53 57 33 13 136 87 354 32 30 102 101 90 18 10 252 130 129 179 13 184 68 356 86 176 88 1 176 243 70 77 38 151 235 112 153 191 66 24 234 240 262 268 244 246 259 254 160 76 305 257 239 234 203 191 233 130 134 168 232 216 203 194 180 170 191 201 190 221 233 231 240 217
127 121 115 107 94 77 59 48 43 38 35 40 91 351 46 60 56 57 64 54 78 160 102 240 53 144 139 155 198 199 99 58 48 5 291 243 101 48 72 99 204 312 93 53 207 100 187 87 117 227 30 134 228 206 228 218 238 251 224 230 208 176 200 196 203 85 48 57 143 106 116 178 216 246 224 219 196 185 197 198 203 204 238 252 246 233 208
129 123 108 78 46 46 47 36 4 53 171 207 186 142 7 47 227 63 2 40 16 69 127 154 89 171 132 146 102 269 146 163 55 73 305 151 157 11 32 61 24 126 114 16 42 193 140 45 126 184 213 208 237 214 244 250 226 240 244 227 208 213 230 285 138 128 91 63 77 30 182 224 255 248 241 234 216 174 184 221 201 190 210 224 235 223 228
114 78 64 19 42 40 14 3 297 231 252 27 345 69 356 30 88 341 1 24 306 45 10 56 88 143 332 83 85 200 108 324 29 130 204 232 162 243 349 205 215 184 259 227 270 82 107 52 283 235 264 248 269 280 263 246 244 241 255 258 225 199 206 173 149 146 144 271 280 221 240 253 256 241 212 242 214 201 217 222 224 217 229 235 233 221 210
96 73 50 38 95 108 169 191 279 311 109 58 42 85 320 8 65 24 334 284 4 32 328 72 116 181 92 68 55 304 241 185 181 25 117 174 169 318 189 105 82 29 288 3 44 157 271 255 330 328 270 266 301 254 244 245 248 240 238 244 235 206 179 182 189 187 195 213 223 189 181 202 225 239 202 227 233 223 225 217 220 219 219 231 234 231 237
49 167 206 41 90 140 120 359 352 192 213 249 340 105 112 339 98 204 333 66 17 325 334 74 193 174 229 149 143 142 324 2 155 192 169 304 194 180 274 74 283 80 267 243 228 6 194 280 265 346 279 240 236 256 226 233 236 248 239 240 226 205 192 193 206 227 236 271 49 186 211 225 204 200 185 197 206 215 224 221 224 220 217 222 224 221 218
52 100 100 139 177 182 304 321 5 47 65 54 3 8 85 35 25 202 45 63 208 233 22 135 98 49 60 49 13 142 21 61 65 90 124 98 234 101 63 127 144 290 271 213 345 68 70 332 271 220 247 235 233 257 289 290 244 265 231 205 213 198 195 207 217 213 217 240 245 246 221 207 194 197 189 189 189 205 216 208 203 206 206 210 209 217 213
193 133 122 98 96 109 41 24 53 61 10 84 122 301 283 236 31 9 144 165 196 158 288 161 13 149 207 168 112 120 76 120 109 97 92 58 320 151 223 337 349 116 243 248 57 58 83 253 265 264 250 251 253 259 266 275 265 246 253 182 191 183 194 202 214 222 209 220 232 224 202 187 204 200 190 175 193 201 198 192 216 210 202 216 216 227 200
101 104 98 86 74 359 74 154 292 104 141 63 43 359 348 59 337 151 225 292 310 113 190 40 61 99 52 183 19 317 132 203 284 346 67 150 356 58 95 24 57 261 243 45 69 56 242 235 239 249 251 260 261 256 240 236 261 256 257 193 204 203 193 198 203 220 211 211 221 212 204 198 212 215 194 186 170 183 231 212 210 202 203 201 205 211 213
110 94 60 340 66 293 197 317 263 41 351 82 109 207 251 331 286 55 31 229 167 164 193 144 191 161 124 345 115 142 92 71 102 97 66 317 81 56 60 269 225 306 50 15 106 206 239 248 230 244 275 294 290 259 250 247 230 256 274 222 179 196 197 210 215 221 227 208 221 224 194 206 214 208 162 203 197 207 218 223 223 213 201 183 212 219 214
183 341 38 26 345 276 52 271 3 114 222 270 147 193 158 103 224 203 176 234 94 178 141 82 129 97 106 274 27 347 349 186 338 117 211 60 53 25 129 262 161 24 112 246 295 297 303 265 257 247 257 260 261 260 249 242 214 211 219 240 210 197 190 196 212 211 220 198 207 190 205 209 203 211 207 215 217 220 211 224 207 181 202 197 214 235 227
67 128 38 42 328 310 102 211 10 33 278 141 189 192 160 231 167 208 265 60 113 141 131 140 98 95 88 310 102 156 357 76 69 15 166 65 119 264 254 326 87 44 340 11 279 240 225 235 251 251 231 228 242 254 242 244 256 169 141 233 224 201 209 209 216 213 220 207 197 192 209 187 203 207 218 218 212 215 220 232 196 185 185 196 219 219 216
90 26 84 107 191 271 65 164 240 204 190 206 222 179 133 161 197 159 165 185 130 142 99 74 93 148 132 189 70 40 48 31 106 226 95 75 183 218 38 116 240 193 180 240 238 248 256 253 240 243 249 244 253 255 252 241 206 196 217 236 229 209 204 208 214 219 224 207 198 205 212 208 212 215 214 221 232 217 219 209 211 201 187 211 222 215 195
101 260 95 235 245 185 191 254 126 90 19 101 262 283 269 290 76 228 224 220 165 135 130 127 105 88 57 309 73 133 161 282 100 282 164 175 72 52 20 11 251 243 213 203 235 224 237 250 235 232 233 228 230 250 261 232 220 217 224 230 234 225 211 207 216 225 207 197 206 209 213 210 206 201 207 219 232 232 215 218 211 193 208 230 235 215 209
129 133 179 213 208 171 225 206 57 309 292 322 284 284 154 154 201 219 172 174 144 152 165 107 182 93 77 303 95 96 216 284 153 228 101 38 145 208 164 232 276 282 231 194 237 229 228 236 229 240 268 274 243 223 242 233 211 209 211 214 220 218 209 208 217 218 205 208 210 208 214 210 194 203 214 225 238 249 220 205 201 206 206 207 214 213 215
102 305 46 87 333 298 212 194 25 300 287 326 257 245 188 184 245 252 162 144 172 106 101 76 57 82 193 124 11 17 248 256 130 56 73 218 209 194 87 266 226 207 257 200 220 242 241 234 215 277 252 241 249 229 238 247 220 225 228 224 225 203 205 208 217 210 204 206 208 212 206 174 190 195 200 210 217 161 149 194 205 213 217 215 213 220 223
356 146 243 170 191 232 141 206 197 207 281 260 206 209 177 198 181 177 188 138 136 91 59 162 195 102 116 37 59 168 229 155 111 182 181 215 179 146 199 219 237 208 228 215 214 234 238 236 203 231 261 259 249 242 231 235 223 224 223 216 220 215 223 217 221 209 213 212 207 190 194 207 211 201 204 159 150 193 262 247 218 208 212 211 209 215 223
80 229 249 297 41 150 164 95 56 213 214 196 188 236 144 199 206 165 155 134 156 146 177 166 102 76 85 204 219 164 71 58 200 28 303 246 176 177 215 208 225 221 218 224 244 225 236 239 214 228 236 250 256 248 237 233 240 245 232 224 210 204 214 215 215 212 205 197 200 205 217 205 161 151 141 133 142 185 240 254 217 199 204 204 216 214 224